TimeEST,TemperatureF,Dew PointF,Humidity,Sea Level PressureIn,VisibilityMPH,Wind Direction,Wind SpeedMPH,Gust SpeedMPH,PrecipitationIn,Events,Conditions,WindDirDegrees,DateUTC
12:51 AM,25.0,18.0,75,30.40,10.0,West,6.9,-,N/A,,Clear,280,2013-01-05 05:51:00
1:51 AM,24.1,18.0,77,30.41,10.0,WSW,4.6,-,N/A,,Clear,240,2013-01-05 06:51:00
2:51 AM,23.0,18.0,81,30.43,10.0,West,5.8,-,N/A,,Clear,260,2013-01-05 07:51:00
3:32 AM,21.2,17.6,86,30.33,10.0,SW,3.5,-,N/A,,Mostly Cloudy,230,2013-01-05 08:32:00
3:51 AM,24.1,19.0,81,30.44,10.0,SW,5.8,-,N/A,,Mostly Cloudy,230,2013-01-05 08:51:00
4:23 AM,23.0,17.6,80,30.33,10.0,SW,4.6,-,N/A,,Partly Cloudy,230,2013-01-05 09:23:00
4:51 AM,21.2,17.6,86,30.30,10.0,WNW,4.6,-,N/A,,Clear,300,2013-01-05 09:51:00
5:51 AM,19.9,17.1,89,30.43,10.0,Calm,Calm,-,N/A,,Clear,0,2013-01-05 10:51:00
6:51 AM,19.4,15.8,86,30.31,10.0,Calm,Calm,-,N/A,,Clear,0,2013-01-05 11:51:00
7:51 AM,19.0,15.1,85,30.43,9.0,South,3.5,-,N/A,,Clear,170,2013-01-05 12:51:00
8:51 AM,23.0,19.0,85,30.45,10.0,SW,4.6,-,N/A,,Clear,220,2013-01-05 13:51:00
9:51 AM,26.6,19.4,74,30.34,10.0,SW,5.8,-,N/A,,Clear,230,2013-01-05 14:51:00
10:51 AM,30.0,21.0,69,30.44,10.0,WSW,4.6,-,N/A,,Clear,240,2013-01-05 15:51:00
11:51 AM,32.0,19.0,59,30.39,10.0,Calm,Calm,-,N/A,,Clear,0,2013-01-05 16:51:00
12:51 PM,36.0,19.0,50,30.34,10.0,Calm,Calm,-,N/A,,Clear,0,2013-01-05 17:51:00
1:51 PM,36.0,19.0,50,30.31,10.0,Calm,Calm,-,N/A,,Clear,0,2013-01-05 18:51:00
2:51 PM,39.9,19.0,43,30.29,10.0,Calm,Calm,-,N/A,,Clear,0,2013-01-05 19:51:00
3:51 PM,37.9,21.9,53,30.29,10.0,Calm,Calm,-,N/A,,Clear,0,2013-01-05 20:51:00
4:51 PM,37.0,21.0,52,30.27,10.0,Calm,Calm,-,N/A,,Clear,0,2013-01-05 21:51:00
5:51 PM,37.0,21.0,52,30.28,10.0,Calm,Calm,-,N/A,,Overcast,0,2013-01-05 22:51:00
6:51 PM,37.0,21.9,54,30.28,10.0,Calm,Calm,-,0.00,Rain,Light Rain,0,2013-01-05 23:51:00
7:51 PM,36.0,23.0,59,30.28,10.0,WSW,3.5,-,0.00,,Overcast,240,2013-01-06 00:51:00
8:51 PM,35.1,25.0,67,30.26,10.0,SSE,3.5,-,N/A,,Mostly Cloudy,160,2013-01-06 01:51:00
9:51 PM,36.0,24.1,62,30.26,10.0,Calm,Calm,-,0.00,Rain,Light Rain,0,2013-01-06 02:51:00
10:51 PM,35.1,23.0,61,30.27,10.0,SW,6.9,-,0.00,Rain,Light Rain,230,2013-01-06 03:51:00
11:51 PM,33.8,24.8,70,30.18,10.0,WSW,10.4,19.6,N/A,,Overcast,240,2013-01-06 04:51:00